Regional Weather Roundup
Issued by NWS Charleston, SC

Current Version | Previous Version | Graphics & Text | Print | Product List | Glossary On
Versions: 1 2 3 4 5 6 7 8 9 10 11 12 13 14 15 16 17 18 19 20 21 22 23 24 25 26 27 28 29 30 31 32 33 34 35 36 37 38 39 40 41 42 43 44 45 46 47 48 49 50
000
ASUS42 KCHS 241128
RWRCHS

REGIONAL WEATHER ROUNDUP
NATIONAL WEATHER SERVICE CHARLESTON SC
700 AM EDT SUN JUL 24 2016

NOTE: "FAIR" INDICATES FEW OR NO CLOUDS BELOW 12,000 FEET WITH NO
SIGNIFICANT WEATHER AND/OR OBSTRUCTIONS TO VISIBILITY.

NOT ALL STATIONS ARE QUALITY CONTROLLED. USE DATA WITH CAUTION...
ESPECIALLY DEWPOINT OBSERVATIONS.

SCZ027-030-031-034>040-042>050-241200-
...SOUTHEAST SOUTH CAROLINA...

CITY           SKY/WX    TMP DP  RH WIND       PRES   REMARKS
N CHARLESTON   PTCLDY    79  75  87 SW6       30.02R
WATERFRONT PRK   N/A     81  78  91 CALM      30.00R
MOUNT PLEASANT FAIR      77  77 100 CALM      30.02S FOG
JOHNS ISLAND   FAIR      81  77  89 CALM      30.03R
PINOPOLIS        N/A     79  75  89 SW8       29.94R
MONCKS CORNER  FAIR      75  72  88 SW6       30.02S
SUMMERVILLE    NOT AVBL
BEAUFORT MCAS  CLEAR     78  74  87 CALM      30.03R
BEAUFORT ARPT  FAIR      81  73  78 CALM      30.03R
HILTON HEAD IS CLEAR     79  75  89 SW6       30.03R
WALTERBORO     SUNNY     79  79 100 SW3       30.04R
ALLENDALE      FAIR      75  72  88 CALM      30.03R

...SOUTHERN MIDLANDS AND PEE DEE...

CITY           SKY/WX    TMP DP  RH WIND       PRES   REMARKS
GEORGETOWN     FAIR      75  73  94 SW3       30.03R
KINGSTREE      FAIR      73  70  88 CALM      30.01S
ORANGEBURG     CLEAR     74  72  93 CALM      30.02R
BARNWELL       NOT AVBL
AIKEN          FAIR      73  68  83 CALM      30.06R
MANNING        FAIR      77  72  83 SW3       30.01S
COLUMBIA       PTCLDY    75  71  87 SW5       30.01R
SUMTER         CLEAR     75  72  90 S3        29.99S FOG
FLORENCE       CLEAR     78  74  87 SW5       30.01R
MYRTLE BEACH   CLEAR     81  70  69 CALM      30.03R
N MYRTLE BEACH CLOUDY    82  76  81 S7        30.01R

$$

GAZ063-065-086>088-099>101-113>116-118-119-134>141-150-241200-
...SOUTHEAST GEORGIA...

CITY           SKY/WX    TMP DP  RH WIND       PRES   REMARKS
SAVANNAH ARPT  PTCLDY    77  72  84 SW5       30.03R
HUNTER AAF     CLEAR     77  77 100 S2        30.00R
FORT STEWART   CLEAR     74  72  92 CALM      30.01R
STATESBORO     CLEAR     75  74  96 CALM      30.03S
SYLVANIA       NOT AVBL
CLAXTON        FAIR      73  73 100 CALM      30.03R FOG

...CSRA...CENTRAL AND FAR SOUTHEAST GEORGIA...

CITY           SKY/WX    TMP DP  RH WIND       PRES   REMARKS
THOMSON        CLEAR     75  74  96 CALM      30.07R
AUGUSTA-BUSH   PTCLDY    71  70  96 CALM      30.01R
AUGUSTA-DANIEL CLEAR     78  68  71 SW3       30.03R
SWAINSBORO     FAIR      72  70  94 CALM      30.04R
VIDALIA        CLEAR     73  72  94 CALM      30.04R
EASTMAN        FAIR      74  74 100 CALM      30.05S FOG
HAZLEHURST     FAIR      75  75 100 CALM      30.03R
ALMA           CLEAR     72  71  97 CALM      30.03R FOG
WAYCROSS       CLEAR     76  75  99 S3        30.04R
JESUP          FAIR      73  73 100 CALM      30.03S
BAXLEY         FAIR      73  73 100 CALM      30.03R FOG
BRUNSWICK      CLEAR     75  75 100 W3        30.04R
SAINT SIMONS   CLEAR     79  74  84 SW6       30.02R

$$

SCZ027-028-034-036>038-045-046-048>050-GAZ119-141-241200-
...LAKE AND SUPPLEMENTAL COASTAL OBSERVATIONS...

STATION/POSITION TIME  TEMP    WIND        PRES    WAVE   SWELL
                       AIR SEA DIR/SP/G            HT/PER HT/PER/DIR
                 (UTC) (F)     (DEG/KT/KT) (MB)    (FT/S) (FT/S/D)
WINYAH BAY       1000   79     240/  2     1015.0S
LAKE MURRAY      1100   80     260/  3/  4 1015.9R
ACE BASIN NERRS  1000   79        CALM     1016.0S
FORT PULASKI     1100   80 87  220/  3/  5 1017.0R
SAPELO ISLAND    1100   80     180/  5     1017.0R

$$

ANZ835-935-AMZ111-154-330-350-352-354-370-450-454-472-241200-
...C-MAN AND BUOY OBSERVATIONS...

STATION/POSITION TIME  TEMP    WIND        PRES    WAVE   SWELL
                       AIR SEA DIR/SP/G            HT/PER HT/PER/DIR
                 (UTC) (F)     (DEG/KT/KT) (MB)    (FT/S) (FT/S/D)
BUOY 41004       1050   85 86  250/ 12/ 14 1016.2R   3/ 9   2/120/ 9
BUOY 41008       1050   85 86  190/ 10/ 12 1016.4R   3/ 8   2/ 80/ 8
FOLLY BEACH CMAN 1100   81     270/  2/  3 1016.8R
CAPERS NEARSHORE 1108   83 83  280/  8/ 10 1016.5R
FRIPP NEARSHORE  1108   83 86  260/  8/ 12 1016.2R


STATION/POSITION TIME  TEMP    WIND        PRES    WAVE   SWELL
                       AIR SEA DIR/SP/G            HT/PER HT/PER/DIR
                 (UTC) (F)     (DEG/KT/KT) (MB)    (FT/S) (FT/S/D)
5E ST. MARYS GA  1101      86                N/A     2/ 8
FRYING PAN BUOY  1100   84 85  210/  8/ 10 1016.5R
BUOY 41025       1050   83 85  230/ 14/ 16 1016.1F   3/ 4   2/140/ 8
CAPE LOOKOUT NC  1100   83     240/  5/  7 1016.3R
BUOY 41002       1050   83 84   20/  2/  4 1017.8R   2/ 9   2/100/ 9
BUOY 41010       1020   84 87  340/  2/  2 1017.4R
ST AUGUSTINE FL  1100   76 85  210/  4/  5 1018.0R


$$




USA.gov is the U.S. government's official web portal to all federal, state and local government web resources and services.